Wrangell, AK

12:57 AM AKST on January 20, 2018 (GMT -0900)
Wrangell

Weather History for PAWG - September, 2012

Change the Weather History Date:

Sunday, September 16, 2012

  Actual Average Record
Temperature  
Mean Temperature 50 °F -  
Max Temperature 57 °F 57 °F 68 °F (2010)
Min Temperature 44 °F 44 °F 22 °F (1956)
Degree Days  
Heating Degree Days 14    
Moisture  
Dew Point 43 °F    
Average Humidity 87    
Maximum Humidity 93    
Minimum Humidity 63    
Precipitation  
Precipitation 0.00 in - - ()
Sea Level Pressure  
Sea Level Pressure 30.38 in    
Wind  
Wind Speed 4 mph (SE)    
Max Wind Speed 8 mph    
Max Gust Speed -    
Visibility 6 miles    
Events      
Averages and records for this station are not official NWS values.
T = Trace of Precipitation, MM = Missing Value Source: NWS Daily Summary

Daily Weather History Graph

Daily Weather History Graph

Search for Another Location

Airport or City:

Trip Planner

Search our weather history database for the weather conditions in past years. The results will help you decide how hot, cold, wet, or windy it might be!

Date:

Astronomy

Sep. 16, 2012 Rise Set
Actual Time 6:23 AM AKDT 7:02 PM AKDT
Civil Twilight 5:45 AM AKDT 7:40 PM AKDT
Nautical Twilight 5:00 AM AKDT 8:26 PM AKDT
Astronomical Twilight 4:10 AM AKDT 9:15 PM AKDT
Moon 7:32 AM AKDT (9/16) 6:45 PM AKDT (9/16)
Length of Visible Light 13h 54m
Length of Day
12h 38m
New Moon, 1% of the Moon is Illuminated
Sep 16
New Moon
Sep 22
First Quarter
Sep 29
Full
Oct 7
Last Quarter
Oct 15
New

Hourly Weather History & Observations

Time (AKDT) Temp. Windchill Dew Point Humidity Pressure Visibility Wind Dir Wind Speed Gust Speed Precip Events Conditions
12:16 AM 44.6 °F 42.2 °F 42.8 °F 93% 30.44 in 10.0 mi SSE 4.6 mph - N/A   Clear
12:36 AM 44.6 °F 43.1 °F 41.0 °F 87% 30.44 in 10.0 mi SSE 3.5 mph - N/A   Clear
12:56 AM 44.6 °F 42.2 °F 41.0 °F 87% 30.44 in 10.0 mi SE 4.6 mph - N/A   Clear
1:16 AM 44.6 °F 41.4 °F 41.0 °F 87% 30.44 in 10.0 mi SE 5.8 mph - N/A   Clear
1:36 AM 44.6 °F 41.4 °F 42.8 °F 93% 30.44 in 10.0 mi SE 5.8 mph - N/A   Clear
1:56 AM 44.6 °F 40.7 °F 42.8 °F 93% 30.44 in 10.0 mi SE 6.9 mph - N/A   Partly Cloudy
2:16 AM 44.6 °F 40.2 °F 42.8 °F 93% 30.44 in 0.8 mi ESE 8.1 mph - N/A   Overcast
2:36 AM 44.6 °F 41.4 °F 42.8 °F 93% 30.43 in 0.2 mi SE 5.8 mph - N/A   Overcast
2:56 AM 44.6 °F 40.2 °F 42.8 °F 93% 30.43 in 0.2 mi SE 8.1 mph - N/A   Overcast
3:16 AM 44.6 °F 41.4 °F 42.8 °F 93% 30.43 in 0.5 mi SE 5.8 mph - N/A   Overcast
3:36 AM 44.6 °F 40.7 °F 42.8 °F 93% 30.43 in 0.2 mi SE 6.9 mph - N/A   Overcast
3:56 AM 44.6 °F 41.4 °F 42.8 °F 93% 30.43 in 0.2 mi SE 5.8 mph - N/A   Overcast
4:16 AM 44.6 °F 41.4 °F 42.8 °F 93% 30.43 in 0.2 mi SE 5.8 mph - N/A   Overcast
4:36 AM 44.6 °F 40.7 °F 42.8 °F 93% 30.42 in 0.2 mi SE 6.9 mph - N/A   Overcast
4:56 AM 44.6 °F 41.4 °F 41.0 °F 87% 30.42 in 0.2 mi SE 5.8 mph - N/A   Overcast
5:16 AM 44.6 °F 41.4 °F 42.8 °F 93% 30.43 in 0.2 mi SE 5.8 mph - N/A   Overcast
5:36 AM 44.6 °F 40.7 °F 42.8 °F 93% 30.42 in 0.2 mi SE 6.9 mph - N/A   Unknown
5:56 AM 44.6 °F 41.4 °F 41.0 °F 87% 30.42 in 0.2 mi SE 5.8 mph - N/A   Unknown
6:16 AM 44.6 °F 41.4 °F 41.0 °F 87% 30.42 in 0.2 mi SE 5.8 mph - N/A   Unknown
6:36 AM 44.6 °F 41.4 °F 41.0 °F 87% 30.43 in 0.2 mi ESE 5.8 mph - N/A   Unknown
6:56 AM 44.6 °F 41.4 °F 41.0 °F 87% 30.43 in 0.2 mi ESE 5.8 mph - N/A   Unknown
7:16 AM 44.6 °F 43.1 °F 41.0 °F 87% 30.43 in 0.2 mi East 3.5 mph - N/A   Unknown
7:36 AM 44.6 °F 43.1 °F 41.0 °F 87% 30.43 in 0.2 mi East 3.5 mph - N/A   Unknown
7:56 AM 44.6 °F 43.1 °F 41.0 °F 87% 30.43 in 0.2 mi ESE 3.5 mph - N/A   Unknown
8:16 AM 44.6 °F - 41.0 °F 87% 30.43 in 0.2 mi Calm Calm - N/A   Unknown
8:36 AM 44.6 °F 43.1 °F 41.0 °F 87% 30.43 in 0.2 mi ESE 3.5 mph - N/A   Unknown
8:56 AM 44.6 °F - 42.8 °F 93% 30.43 in 0.2 mi Calm Calm - N/A   Unknown
9:16 AM 44.6 °F - 42.8 °F 93% 30.43 in 0.2 mi Calm Calm - N/A   Unknown
9:36 AM 44.6 °F - 42.8 °F 93% 30.43 in 0.2 mi Calm Calm - N/A   Unknown
9:56 AM 44.6 °F - 42.8 °F 93% 30.43 in 0.2 mi Calm Calm - N/A   Unknown
10:16 AM 44.6 °F - 42.8 °F 93% 30.42 in 0.2 mi Calm Calm - N/A   Unknown
10:36 AM 44.6 °F 43.1 °F 42.8 °F 93% 30.42 in 0.2 mi NNE 3.5 mph - N/A   Unknown
10:56 AM 44.6 °F - 42.8 °F 93% 30.42 in 0.2 mi Calm Calm - N/A   Overcast
11:16 AM 44.6 °F 43.1 °F 42.8 °F 93% 30.42 in 0.2 mi North 3.5 mph - N/A   Overcast
11:36 AM 44.6 °F - 42.8 °F 93% 30.41 in 0.2 mi Calm Calm - N/A   Overcast
11:56 AM 44.6 °F 43.1 °F 42.8 °F 93% 30.41 in 0.2 mi NNW 3.5 mph - N/A   Overcast
12:16 PM 44.6 °F 42.2 °F 42.8 °F 93% 30.40 in 0.2 mi NNW 4.6 mph - N/A   Overcast
12:20 PM 44.6 °F 42.2 °F 42.8 °F 93% 30.40 in 1.5 mi WNW 4.6 mph - N/A   Partly Cloudy
12:36 PM 44.6 °F 41.4 °F 42.8 °F 93% 30.40 in 1.5 mi NNW 5.8 mph - N/A   Partly Cloudy
12:56 PM 46.4 °F 43.5 °F 44.6 °F 93% 30.39 in 10.0 mi NNW 5.8 mph - N/A   Partly Cloudy
1:16 PM 48.2 °F - 44.6 °F 87% 30.39 in 10.0 mi NNW 6.9 mph - N/A   Partly Cloudy
1:36 PM 48.2 °F - 44.6 °F 87% 30.39 in 10.0 mi NNW 5.8 mph - N/A   Partly Cloudy
1:56 PM 51.8 °F - 46.4 °F 82% 30.38 in 10.0 mi NNW 5.8 mph - N/A   Partly Cloudy
2:16 PM 53.6 °F - 46.4 °F 77% 30.38 in 10.0 mi NNW 5.8 mph - N/A   Partly Cloudy
2:36 PM 55.4 °F - 46.4 °F 72% 30.37 in 10.0 mi NNW 5.8 mph - N/A   Partly Cloudy
2:56 PM 55.4 °F - 44.6 °F 67% 30.37 in 10.0 mi NNW 4.6 mph - N/A   Clear
3:16 PM 55.4 °F - 46.4 °F 72% 30.36 in 10.0 mi NNW 5.8 mph - N/A   Clear
3:36 PM 57.2 °F - 46.4 °F 67% 30.36 in 10.0 mi Calm Calm - N/A   Clear
3:56 PM 55.4 °F - 46.4 °F 72% 30.35 in 10.0 mi NW 5.8 mph - N/A   Clear
4:16 PM 57.2 °F - 46.4 °F 67% 30.35 in 10.0 mi SW 3.5 mph - N/A   Clear
4:36 PM 57.2 °F - 44.6 °F 63% 30.35 in 10.0 mi SW 5.8 mph - N/A   Clear
4:56 PM 55.4 °F - 46.4 °F 72% 30.34 in 10.0 mi Calm Calm - N/A   Clear
5:16 PM 53.6 °F - 46.4 °F 77% 30.34 in 10.0 mi Calm Calm - N/A   Clear
5:36 PM 51.8 °F - 46.4 °F 82% 30.33 in 10.0 mi Calm Calm - N/A   Clear
5:56 PM 53.6 °F - 46.4 °F 77% 30.33 in 10.0 mi Calm Calm - N/A   Clear
6:16 PM 51.8 °F - 46.4 °F 82% 30.33 in 10.0 mi Calm Calm - N/A   Clear
6:36 PM 51.8 °F - 46.4 °F 82% 30.32 in 10.0 mi Calm Calm - N/A   Clear
6:56 PM 48.2 °F - 44.6 °F 87% 30.32 in 10.0 mi Calm Calm - N/A   Clear
7:16 PM 48.2 °F - 44.6 °F 87% 30.31 in 10.0 mi Calm Calm - N/A   Clear
7:36 PM 48.2 °F - 42.8 °F 82% 30.31 in 10.0 mi Calm Calm - N/A   Clear
7:56 PM 48.2 °F - 42.8 °F 82% 30.31 in 10.0 mi SSW 4.6 mph - N/A   Clear
8:16 PM 46.4 °F 44.3 °F 42.8 °F 87% 30.31 in 10.0 mi SW 4.6 mph - N/A   Clear
8:36 PM 46.4 °F 45.2 °F 42.8 °F 87% 30.31 in 10.0 mi SSE 3.5 mph - N/A   Clear
8:56 PM 48.2 °F - 44.6 °F 87% 30.30 in 10.0 mi SE 5.8 mph - N/A   Clear
9:16 PM 48.2 °F - 44.6 °F 87% 30.30 in 10.0 mi SE 5.8 mph - N/A   Clear
9:36 PM 46.4 °F 44.3 °F 42.8 °F 87% 30.30 in 10.0 mi South 4.6 mph - N/A   Clear
9:56 PM 46.4 °F - 42.8 °F 87% 30.31 in 10.0 mi Calm Calm - N/A   Clear
10:16 PM 46.4 °F - 44.6 °F 93% 30.31 in 10.0 mi Calm Calm - N/A   Clear
10:36 PM 44.6 °F - 41.0 °F 87% 30.31 in 10.0 mi Calm Calm - N/A   Clear
10:56 PM 44.6 °F - 42.8 °F 93% 30.30 in 10.0 mi Calm Calm - N/A   Clear
11:16 PM 44.6 °F 42.2 °F 41.0 °F 87% 30.30 in 5.0 mi South 4.6 mph - N/A   Clear
11:36 PM 44.6 °F - 42.8 °F 93% 30.29 in 10.0 mi Calm Calm - N/A   Clear
11:56 PM 44.6 °F 43.1 °F 42.8 °F 93% 30.29 in 10.0 mi SE 3.5 mph - N/A   Clear